This is the latest recevied weather packets stored in our database for station/object SP4MAZ-13. If no packets are shown the sender has not sent any weather packets the latest 10 day(s).
| Time | Temp. | Humidity | Pressure | Rain* | Wind** | Luminosity | Snow |
|---|---|---|---|---|---|---|---|
| 1777727987 | 21.67° C | 22% | 2147.4 hPa | - | - | - | - |
| 1777727684 | 22.22° C | 20% | 2147.4 hPa | - | - | - | - |
| 1777727381 | 22.22° C | 22% | 2147.4 hPa | - | - | - | - |
| 1777726774 | 22.22° C | 23% | 2147.4 hPa | - | - | - | - |
| 1777725864 | 22.22° C | 21% | 2147.4 hPa | - | - | - | - |
| 1777725561 | 21.11° C | 27% | 2147.4 hPa | - | - | - | - |
| 1777725259 | 22.22° C | 23% | 2147.4 hPa | - | - | - | - |
| 1777724956 | 22.22° C | 23% | 2147.4 hPa | - | - | - | - |
| 1777724351 | 21.67° C | 22% | 2147.4 hPa | - | - | - | - |
| 1777724048 | 22.22° C | 20% | 2147.4 hPa | - | - | - | - |
| 1777723744 | 21.67° C | 20% | 2147.4 hPa | - | - | - | - |
| 1777723441 | 21.67° C | 23% | 2147.4 hPa | - | - | - | - |
| 1777723137 | 21.67° C | 23% | 2147.4 hPa | - | - | - | - |
| 1777722530 | 21.67° C | 20% | 2147.4 hPa | - | - | - | - |
| 1777722226 | 21.67° C | 22% | 2147.4 hPa | - | - | - | - |
| 1777721923 | 22.22° C | 20% | 2147.4 hPa | - | - | - | - |
| 1777721619 | 21.67° C | 24% | 2147.4 hPa | - | - | - | - |
| 1777721316 | 22.22° C | 27% | 2147.4 hPa | - | - | - | - |
| 1777721013 | 21.67° C | 28% | 2147.4 hPa | - | - | - | - |
| 1777720709 | 21.67° C | 27% | 2147.4 hPa | - | - | - | - |
| 1777720405 | 21.11° C | 25% | 2147.4 hPa | - | - | - | - |
| 1777720102 | 21.67° C | 24% | 2147.4 hPa | - | - | - | - |
| 1777719798 | 21.67° C | 26% | 2147.4 hPa | - | - | - | - |
| 1777719496 | 21.67° C | 20% | 2147.4 hPa | - | - | - | - |
| 1777719192 | 21.67° C | 20% | 2147.4 hPa | - | - | - | - |
* Rain since midnight (hover to see other rain measurements)
** Current wind speed in m/s (hover to see current wind gust speed)